Date,TemperatureHighF,TemperatureAvgF,TemperatureLowF,DewpointHighF,DewpointAvgF,DewpointLowF,HumidityHigh,HumidityAvg,HumidityLow,PressureMaxIn,PressureMinIn,WindSpeedMaxMPH,WindSpeedAvgMPH,GustSpeedMaxMPH,PrecipitationSumIn
2013-1-1,72.9,72.9,72.9,50.7,50.7,50.7,36,36,36,27.05,26.96,23,6,23,0.04
2013-1-2,72.9,72.9,72.9,50.7,50.7,50.7,36,36,36,27.05,26.93,15,5,15,0.04
2013-1-3,72.9,72.9,72.9,50.7,50.7,50.7,36,36,36,27.08,26.99,23,6,23,0.00
2013-1-4,78.6,72.5,64.4,51.3,50.9,50.2,60,46,26,27.08,27.02,18,7,18,0.00
2013-1-5,73.9,69.7,63.9,51.8,49.3,48.2,59,47,42,27.08,26.99,36,8,36,0.04
2013-1-6,74.5,70.9,66.0,51.0,49.7,48.3,51,45,35,27.05,26.96,21,7,21,0.04
2013-1-7,70.0,70.0,70.0,51.0,51.0,51.0,51,51,51,27.02,26.93,26,8,26,0.04
2013-1-8,70.0,70.0,70.0,51.0,51.0,51.0,51,51,51,27.02,26.87,25,7,25,0.04
2013-1-9,70.0,70.0,70.0,51.0,51.0,51.0,51,51,51,27.05,26.96,23,7,23,0.04
2013-1-10,70.0,70.0,70.0,51.0,51.0,51.0,51,51,51,27.05,26.93,30,9,30,0.04
2013-1-11,76.5,73.2,67.1,51.0,51.0,51.0,51,40,32,27.02,26.93,29,10,29,0.04
2013-1-12,76.5,76.5,76.5,51.0,51.0,51.0,32,32,32,27.05,26.96,23,6,23,0.04
2013-1-13,76.5,76.5,76.5,51.0,51.0,51.0,32,32,32,27.05,26.99,20,6,20,0.04
2013-1-14,76.5,76.5,76.5,51.0,51.0,51.0,32,32,32,27.08,26.99,18,6,18,0.04
2013-1-15,76.5,76.5,76.5,51.0,51.0,51.0,32,32,32,27.05,26.99,17,5,17,0.04
2013-1-16,76.5,76.5,76.5,51.0,51.0,51.0,32,32,32,27.08,27.02,19,4,19,0.00
2013-1-17,76.5,76.5,76.5,51.0,51.0,51.0,32,32,32,27.11,26.99,26,8,26,0.04
2013-1-18,76.5,76.5,76.5,51.0,51.0,51.0,32,32,32,27.11,26.99,30,10,30,0.04
2013-1-19,76.5,76.5,76.5,51.0,51.0,51.0,32,32,32,27.11,26.99,32,10,32,0.00
2013-1-20,76.5,76.5,76.5,51.0,51.0,51.0,32,32,32,27.08,26.96,30,10,30,0.04
2013-1-21,76.5,76.5,76.5,51.0,51.0,51.0,32,32,32,27.08,26.99,21,7,21,0.04
2013-1-22,76.5,76.5,76.5,51.0,51.0,51.0,32,32,32,27.11,26.99,20,7,22,0.04
2013-1-23,76.5,76.5,76.5,51.0,51.0,51.0,32,32,32,27.17,27.05,25,8,25,0.04
2013-1-24,76.5,76.5,76.5,51.0,51.0,51.0,32,32,32,27.17,27.05,28,7,28,0.04
2013-1-25,76.5,76.5,76.5,51.0,51.0,51.0,32,32,32,27.14,27.05,20,7,20,0.04
2013-1-26,76.5,76.5,76.5,51.0,51.0,51.0,32,32,32,27.14,27.05,20,7,20,0.04
2013-1-27,76.5,76.5,76.5,51.0,51.0,51.0,32,32,32,27.11,27.05,23,8,23,0.04
2013-1-28,76.5,76.5,76.5,51.0,51.0,51.0,32,32,32,27.14,27.05,22,8,22,0.04
2013-1-29,76.5,76.5,76.5,51.0,51.0,51.0,32,32,32,27.14,27.05,27,6,27,0.04
2013-1-30,76.5,76.5,76.5,51.0,51.0,51.0,32,32,32,27.08,26.99,17,5,17,0.04
2013-1-31,76.5,76.5,76.5,51.0,51.0,51.0,32,32,32,27.08,26.99,25,8,25,0.04